When you browse on this site, cookies collect data to enhance your experience and personalize the content and advertising you see.
Visit our Privacy Policy to learn more. By continuing to use the site, you agree to this use of cookies and data.

Hourly Weather Aleksandrov Gay

Today, 11 July, Saturday

Time Temperature Precipitation Wind Pressure Humidity
00:00 +28°C° 0 mm 5 mps 757 mmHg 58%
01:00 +28°C° 0 mm 5 mps 757 mmHg 62%
02:00 +27°C° 0 mm 5 mps 757 mmHg 66%
03:00 +26°C° 0 mm 5 mps 757 mmHg 64%
04:00 +26°C° 0 mm 5 mps 757 mmHg 66%
05:00 +26°C° 0 mm 5 mps 758 mmHg 68%
06:00 +26°C° 0 mm 5 mps 758 mmHg 70%
07:00 +26°C° 0 mm 6 mps 758 mmHg 69%
08:00 +26°C° 0 mm 6 mps 758 mmHg 67%
09:00 +27°C° 0 mm 7 mps 758 mmHg 66%
10:00 +28°C° 0 mm 6 mps 758 mmHg 60%
11:00 +30°C° 0 mm 5 mps 758 mmHg 54%
12:00 +32°C° 0 mm 5 mps 758 mmHg 49%
13:00 +34°C° 0 mm 4 mps 758 mmHg 43%
14:00 +36°C° 0 mm 4 mps 758 mmHg 37%
15:00 +37°C° 0 mm 4 mps 757 mmHg 32%
16:00 +37°C° 0 mm 5 mps 757 mmHg 36%
17:00 +36°C° 0 mm 6 mps 757 mmHg 40%
18:00 +35°C° 0 mm 7 mps 757 mmHg 44%
19:00 +33°C° 0 mm 7 mps 757 mmHg 51%
20:00 +32°C° 0 mm 7 mps 758 mmHg 59%
21:00 +29°C° 0 mm 7 mps 758 mmHg 66%
22:00 +28°C° 0 mm 7 mps 758 mmHg 69%
23:00 +28°C° 0 mm 6 mps 758 mmHg 73%

Tomorrow, 12 July, Sunday

Time Temperature Precipitation Wind Pressure Humidity
00:00 +27°C° 0 mm 6 mps 758 mmHg 76%
01:00 +26°C° 0 mm 6 mps 758 mmHg 79%
02:00 +26°C° 0 mm 6 mps 758 mmHg 82%
03:00 +24°C° 0 mm 6 mps 758 mmHg 84%
04:00 +24°C° 0 mm 6 mps 757 mmHg 82%
05:00 +26°C° 0 mm 6 mps 757 mmHg 80%
06:00 +26°C° 0 mm 6 mps 757 mmHg 78%
07:00 +28°C° 0 mm 6 mps 757 mmHg 67%
08:00 +32°C° 0 mm 5 mps 757 mmHg 57%
09:00 +34°C° 0 mm 5 mps 757 mmHg 46%
10:00 +36°C° 0 mm 4 mps 757 mmHg 39%
11:00 +38°C° 0 mm 4 mps 756 mmHg 31%
12:00 +41°C° 0 mm 4 mps 756 mmHg 24%
13:00 +41°C° 0 mm 4 mps 756 mmHg 22%
14:00 +41°C° 0 mm 5 mps 756 mmHg 21%
15:00 +41°C° 0 mm 5 mps 755 mmHg 20%
16:00 +39°C° 0.1 mm 5 mps 756 mmHg 24%
17:00 +36°C° 0.1 mm 5 mps 756 mmHg 29%
18:00 +35°C° 0.1 mm 5 mps 756 mmHg 33%
19:00 +33°C° 0.1 mm 4 mps 756 mmHg 37%
20:00 +32°C° 0.1 mm 4 mps 756 mmHg 40%
21:00 +30°C° 0.1 mm 3 mps 755 mmHg 43%
22:00 +29°C° 0 mm 3 mps 755 mmHg 44%
23:00 +29°C° 0 mm 3 mps 755 mmHg 45%

Day after tomorrow, 13 July, Monday

Time Temperature Precipitation Wind Pressure Humidity
00:00 +28°C° 0 mm 4 mps 755 mmHg 46%
01:00 +28°C° 0 mm 4 mps 755 mmHg 47%
02:00 +28°C° 0 mm 4 mps 755 mmHg 48%
03:00 +27°C° 0 mm 4 mps 755 mmHg 48%
04:00 +28°C° 0 mm 4 mps 755 mmHg 48%
05:00 +28°C° 0 mm 4 mps 754 mmHg 48%
06:00 +29°C° 0 mm 4 mps 754 mmHg 49%
07:00 +32°C° 0 mm 4 mps 754 mmHg 43%
08:00 +34°C° 0 mm 4 mps 754 mmHg 38%
09:00 +36°C° 0 mm 4 mps 754 mmHg 32%
10:00 +38°C° 0 mm 4 mps 754 mmHg 27%
11:00 +41°C° 0 mm 4 mps 753 mmHg 22%
12:00 +42°C° 0 mm 5 mps 753 mmHg 17%
13:00 +43°C° 0 mm 5 mps 753 mmHg 16%
14:00 +44°C° 0 mm 6 mps 752 mmHg 14%
15:00 +45°C° 0 mm 7 mps 752 mmHg 12%
16:00 +44°C° 0 mm 6 mps 751 mmHg 14%
17:00 +42°C° 0 mm 5 mps 751 mmHg 15%
18:00 +42°C° 0 mm 4 mps 751 mmHg 16%
19:00 +40°C° 0 mm 4 mps 751 mmHg 17%
20:00 +37°C° 0 mm 4 mps 751 mmHg 18%
21:00 +36°C° 0 mm 4 mps 751 mmHg 20%
22:00 +35°C° 0 mm 4 mps 751 mmHg 20%
23:00 +34°C° 0 mm 4 mps 751 mmHg 20%

14 July, Tuesday

Time Temperature Precipitation Wind Pressure Humidity
00:00 +33°C° 0 mm 4 mps 751 mmHg 21%
01:00 +33°C° 0 mm 4 mps 751 mmHg 22%
02:00 +32°C° 0 mm 5 mps 751 mmHg 24%
03:00 +32°C° 0 mm 5 mps 751 mmHg 26%
04:00 +33°C° 0 mm 6 mps 751 mmHg 27%
05:00 +34°C° 0 mm 7 mps 751 mmHg 29%
06:00 +35°C° 0 mm 8 mps 751 mmHg 31%
07:00 +38°C° 0 mm 9 mps 751 mmHg 28%
08:00 +39°C° 0 mm 9 mps 751 mmHg 25%
09:00 +42°C° 0 mm 9 mps 751 mmHg 21%
10:00 +43°C° 0 mm 10 mps 751 mmHg 20%
11:00 +44°C° 0 mm 10 mps 751 mmHg 18%
12:00 +45°C° 0 mm 10 mps 751 mmHg 16%
13:00 +45°C° 0 mm 10 mps 751 mmHg 16%
14:00 +45°C° 0 mm 10 mps 751 mmHg 15%
15:00 +45°C° 0 mm 10 mps 751 mmHg 15%
16:00 +41°C° 0.2 mm 8 mps 751 mmHg 21%
17:00 +39°C° 0.2 mm 5 mps 751 mmHg 27%
18:00 +35°C° 0.2 mm 3 mps 751 mmHg 33%
19:00 +34°C° 0 mm 3 mps 751 mmHg 35%
20:00 +33°C° 0 mm 3 mps 751 mmHg 38%
21:00 +31°C° 0 mm 2 mps 752 mmHg 41%
22:00 +30°C° 0 mm 3 mps 752 mmHg 43%
23:00 +30°C° 0 mm 4 mps 752 mmHg 45%

15 July, Wednesday

Time Temperature Precipitation Wind Pressure Humidity
00:00 +29°C° 0 mm 5 mps 752 mmHg 47%
01:00 +28°C° 0.1 mm 5 mps 752 mmHg 49%
02:00 +28°C° 0.1 mm 5 mps 752 mmHg 51%
03:00 +27°C° 0.1 mm 5 mps 752 mmHg 54%
04:00 +27°C° 0 mm 4 mps 753 mmHg 54%
05:00 +27°C° 0 mm 3 mps 753 mmHg 55%
06:00 +28°C° 0 mm 2 mps 753 mmHg 56%
07:00 +29°C° 0 mm 3 mps 753 mmHg 52%
08:00 +30°C° 0 mm 4 mps 753 mmHg 48%
09:00 +32°C° 0 mm 4 mps 753 mmHg 45%
10:00 +32°C° 0 mm 5 mps 753 mmHg 44%
11:00 +33°C° 0 mm 5 mps 753 mmHg 43%
12:00 +33°C° 0 mm 5 mps 754 mmHg 42%
13:00 +33°C° 0 mm 6 mps 753 mmHg 43%
14:00 +32°C° 0 mm 7 mps 753 mmHg 44%
15:00 +30°C° 0 mm 7 mps 753 mmHg 45%
16:00 +29°C° 0.2 mm 6 mps 753 mmHg 48%
17:00 +28°C° 0.2 mm 5 mps 753 mmHg 51%
18:00 +27°C° 0.2 mm 4 mps 753 mmHg 54%
19:00 +27°C° 0 mm 3 mps 753 mmHg 56%
20:00 +26°C° 0 mm 3 mps 754 mmHg 58%
21:00 +25°C° 0 mm 3 mps 754 mmHg 60%
22:00 +25°C° 0 mm 3 mps 754 mmHg 59%
23:00 +24°C° 0 mm 3 mps 754 mmHg 58%

16 July, Thursday

Time Temperature Precipitation Wind Pressure Humidity
00:00 +24°C° 0 mm 3 mps 754 mmHg 57%
01:00 +22°C° 0 mm 3 mps 754 mmHg 60%
02:00 +23°C° 0 mm 2 mps 754 mmHg 63%
03:00 +21°C° 0 mm 2 mps 754 mmHg 66%
04:00 +22°C° 0 mm 3 mps 755 mmHg 64%
05:00 +22°C° 0 mm 3 mps 755 mmHg 62%
06:00 +23°C° 0 mm 4 mps 755 mmHg 60%
07:00 +25°C° 0 mm 5 mps 755 mmHg 55%
08:00 +26°C° 0 mm 5 mps 755 mmHg 50%
09:00 +27°C° 0 mm 6 mps 755 mmHg 45%
10:00 +28°C° 0 mm 6 mps 755 mmHg 40%
11:00 +29°C° 0 mm 7 mps 755 mmHg 36%
12:00 +30°C° 0 mm 7 mps 755 mmHg 31%
13:00 +30°C° 0 mm 7 mps 755 mmHg 29%
14:00 +30°C° 0 mm 6 mps 755 mmHg 27%
15:00 +32°C° 0 mm 6 mps 754 mmHg 25%
16:00 +30°C° 0 mm 6 mps 755 mmHg 26%
17:00 +29°C° 0 mm 6 mps 755 mmHg 27%
18:00 +28°C° 0 mm 6 mps 755 mmHg 28%
19:00 +27°C° 0 mm 5 mps 755 mmHg 32%
20:00 +25°C° 0 mm 4 mps 755 mmHg 36%
21:00 +24°C° 0 mm 3 mps 755 mmHg 40%
22:00 +22°C° 0 mm 3 mps 755 mmHg 46%
23:00 +21°C° 0 mm 3 mps 756 mmHg 51%
Show more